QPF
0.00 0.00 0.00 0.00 0.00 0.00 0.00 0.00 0.00 0.00 0.00 0.00 0.00 0.00 0.00 0.00 0.00 0.00 0.00 0.00 0.00 0.00 0.00 0.00 0.00 0.00 0.00 0.00 0.00 0.00 0.00 0.00 0.00 0.00 0.00 0.00 0.00 0.00 0.00 0.00 0.00 0.00 0.00 0.00
0.00 0.00 0.00 0.00 0.00 0.00 0.00 0.00 0.00 0.00 0.00 0.00 0.00 0.00 0.00 0.00 0.00 0.00 0.00 0.00 0.00 0.00 0.00 0.00 0.00 0.00 0.00 0.00 0.00 0.00 0.00 0.00 0.00 0.00 0.00 0.00 0.00 0.00 0.00 0.00 0.00 0.00 0.00 0.00
0.00 0.00 0.00 0.00 0.00 0.00 0.00 0.00 0.00 0.00 0.00 0.00 0.00 0.00 0.00 0.00 0.00 0.00 0.00 0.00 0.00 0.00 0.00 0.00 0.00 0.00 0.00 0.00 0.00 0.00 0.00 0.00 0.00 0.00 0.00 0.00 0.00 0.00 0.00 0.00 0.00 0.00 0.00 0.00
0.00 0.00 0.00 0.00 0.00 0.00 0.00 0.00 0.00 0.00 0.00 0.00 0.00 0.00 0.00 0.00 0.00 0.00 0.00 0.00 0.00 0.00 0.00 0.00 0.00 0.00 0.00 0.00 0.00 0.00 0.00 0.00 0.00 0.00 0.00 0.00 0.00 0.00 0.00 0.00 0.00 0.00 0.00 0.00
0.00 0.00 0.00 0.00 0.00 0.00 0.00 0.00 0.00 0.00 0.00 0.00 0.00 0.00 0.00 0.00 0.00 0.00 0.00 0.00 0.00 0.00 0.00 0.00 0.00 0.00 0.00 0.00 0.00 0.00 0.00 0.00 0.00 0.00 0.00 0.00 0.00 0.00 0.00 0.00 0.00 0.00 0.00 0.00
0.00 0.00 0.00 0.00 0.00 0.00 0.00 0.00 0.00 0.00 0.00 0.00 0.00 0.00 0.00 0.00 0.00 0.00 0.00 0.00 0.00 0.00 0.00 0.00 0.00 0.00 0.00 0.00 0.00 0.00 0.00 0.00 0.00 0.00 0.00 0.00 0.00 0.00 0.00 0.00 0.00 0.00 0.00 0.00
0.00 0.00 0.00 0.00 0.00 0.00 0.00 0.00 0.00 0.00 0.00 0.00 0.00 0.00 0.00 0.00 0.00 0.00 0.00 0.00 0.00 0.00 0.00 0.00 0.00 0.00 0.00 0.00 0.00 0.00 0.00 0.00 0.00 0.00 0.00 0.00 0.00 0.00 0.00 0.00 0.00 0.00 0.00 0.00
0.00 0.00 0.00 0.00 0.00 0.00 0.00 0.00 0.00 0.00 0.00 0.00 0.00 0.00 0.00 0.00 0.00 0.00 0.00 0.00 0.00 0.00 0.00 0.00 0.00 0.00 0.00 0.00 0.00 0.00 0.00 0.00 0.00 0.00 0.00 0.00 0.00 0.00 0.00 0.00 0.00 0.00 0.00 0.00
0.00 0.00 0.00 0.00 0.00 0.00 0.00 0.00 0.00 0.00 0.00 0.00 0.00 0.00 0.00 0.00 0.00 0.00 0.00 0.00 0.00 0.00 0.00 0.00 0.00 0.00 0.00 0.00 0.00 0.00 0.00 0.00 0.00 0.00 0.00 0.00 0.00 0.00 0.00 0.00 0.00 0.00 0.00 0.00
0.00 0.00 0.00 0.00 0.00 0.00 0.00 0.00 0.00 0.00 0.00 0.00 0.00 0.00 0.00 0.00 0.00 0.00 0.00 0.00 0.00 0.00 0.00 0.00 0.00 0.00 0.00 0.00 0.00 0.00 0.00 0.00 0.00 0.00 0.00 0.00 0.00 0.00 0.00 0.00 0.00 0.00 0.00 0.00
0.00 0.00 0.00 0.00 0.00 0.00 0.00 0.00 0.00 0.00 0.00 0.00 0.00 0.00 0.00 0.00 0.00 0.00 0.00 0.00 0.00 0.00 0.00 0.00 0.00 0.00 0.00 0.00 0.00 0.00 0.00 0.00 0.00 0.00 0.00 0.00 0.00 0.00 0.00 0.00 0.00 0.00 0.00 0.00
0.00 0.00 0.00 0.00 0.00 0.00 0.00 0.00 0.00 0.00 0.00 0.00 0.00 0.00 0.00 0.00 0.00 0.00 0.00 0.00 0.00 0.00 0.00 0.00 0.00 0.00 0.00 0.00 0.00 0.00 0.00 0.00 0.00 0.00 0.00 0.00 0.00 0.00 0.00 0.00 0.00 0.00 0.00 0.00
0.00 0.00 0.00 0.00 0.00 0.00 0.00 0.00 0.00 0.00 0.00 0.00 0.00 0.00 0.00 0.00 0.00 0.00 0.00 0.00 0.00 0.00 0.00 0.00 0.00 0.00 0.00 0.00 0.00 0.00 0.00 0.00 0.00 0.00 0.00 0.00 0.00 0.00 0.00 0.00 0.00 0.00 0.00 0.00
0.00 0.00 0.00 0.00 0.00 0.00 0.00 0.00 0.00 0.00 0.00 0.00 0.00 0.00 0.00 0.00 0.00 0.00 0.00 0.00 0.00 0.00 0.00 0.00 0.00 0.00 0.00 0.00 0.00 0.00 0.00 0.00 0.00 0.00 0.00 0.00 0.00 0.00 0.00 0.00 0.00 0.00 0.00 0.00
0.00 0.00 0.00 0.00 0.00 0.00 0.00 0.00 0.00 0.00 0.00 0.00 0.00 0.00 0.00 0.00 0.00 0.00 0.00 0.00 0.00 0.00 0.00 0.00 0.00 0.00 0.00 0.00 0.00 0.00 0.00 0.00 0.00 0.00 0.00 0.00 0.00 0.00 0.00 0.00 0.00 0.00 0.00 0.00
0.00 0.00 0.00 0.00 0.00 0.00 0.00 0.00 0.00 0.00 0.00 0.00 0.00 0.00 0.00 0.00 0.00 0.00 0.00 0.00 0.00 0.00 0.00 0.00 0.00 0.00 0.00 0.00 0.00 0.00 0.00 0.00 0.00 0.00 0.00 0.00 0.00 0.00 0.00 0.00 0.00 0.00 0.00 0.00
0.00 0.00 0.00 0.00 0.00 0.00 0.00 0.00 0.00 0.00 0.00 0.00 0.00 0.00 0.00 0.00 0.00 0.00 0.00 0.00 0.00 0.00 0.00 0.00 0.00 0.00 0.00 0.00 0.00 0.00 0.00 0.00 0.00 0.00 0.00 0.00 0.00 0.00 0.00 0.00 0.00 0.00 0.00 0.00
0.00 0.00 0.00 0.00 0.00 0.00 0.00 0.00 0.00 0.00 0.00 0.00 0.00 0.00 0.00 0.00 0.00 0.00 0.00 0.00 0.00 0.00 0.00 0.00 0.00 0.00 0.00 0.00 0.00 0.00 0.00 0.00 0.00 0.00 0.00 0.00 0.00 0.00 0.00 0.00 0.00 0.00 0.00 0.00
0.00 0.00 0.00 0.00 0.00 0.00 0.00 0.00 0.00 0.00 0.00 0.00 0.00 0.00 0.00 0.00 0.00 0.00 0.00 0.00 0.00 0.00 0.00 0.00 0.00 0.00 0.00 0.00 0.00 0.00 0.00 0.00 0.00 0.00 0.00 0.00 0.00 0.00 0.00 0.00 0.00 0.00 0.00 0.00
0.00 0.00 0.00 0.00 0.00 0.00 0.00 0.00 0.00 0.00 0.00 0.00 0.00 0.00 0.00 0.00 0.00 0.00 0.00 0.00 0.00 0.00 0.00 0.00 0.00 0.00 0.00 0.00 0.00 0.00 0.00 0.00 0.00 0.00 0.00 0.00 0.00 0.00 0.00 0.00 0.00 0.00 0.00 0.00
0.00 0.00 0.00 0.00 0.00 0.00 0.00 0.00 0.00 0.00 0.00 0.00 0.00 0.00 0.00 0.00 0.00 0.00 0.00 0.00 0.00 0.00 0.00 0.00 0.00 0.00 0.00 0.00 0.00 0.00 0.00 0.00 0.00 0.00 0.00 0.00 0.00 0.00 0.00 0.00 0.00 0.00 0.00 0.00
0.00 0.00 0.00 0.00 0.00 0.00 0.00 0.00 0.00 0.00 0.00 0.00 0.00 0.00 0.00 0.00 0.00 0.00 0.00 0.00 0.00 0.00 0.00 0.00 0.00 0.00 0.00 0.00 0.00 0.00 0.00 0.00 0.00 0.00 0.00 0.00 0.00 0.00 0.00 0.00 0.00 0.00 0.00 0.00
0.00 0.00 0.00 0.00 0.00 0.00 0.00 0.00 0.00 0.00 0.00 0.00 0.00 0.00 0.00 0.00 0.00 0.00 0.00 0.00 0.00 0.00 0.00 0.00 0.00 0.00 0.00 0.00 0.00 0.00 0.00 0.00 0.00 0.00 0.00 0.00 0.00 0.00 0.00 0.00 0.00 0.00 0.00 0.00
0.00 0.00 0.00 0.00 0.00 0.00 0.00 0.00 0.00 0.00 0.00 0.00 0.00 0.00 0.00 0.00 0.00 0.00 0.00 0.00 0.00 0.00 0.00 0.00 0.00 0.00 0.00 0.00 0.00 0.00 0.00 0.00 0.00 0.00 0.00 0.00 0.00 0.00 0.00 0.00 0.00 0.00 0.00 0.00
0.00 0.00 0.00 0.00 0.00 0.00 0.00 0.00 0.00 0.00 0.00 0.00 0.00 0.00 0.00 0.00 0.00 0.00 0.00 0.00 0.00 0.00 0.00 0.00 0.00 0.00 0.00 0.00 0.00 0.00 0.00 0.00 0.00 0.00 0.00 0.00 0.00 0.00 0.00 0.00 0.00 0.00 0.00 0.00
0.00 0.00 0.00 0.00 0.00 0.00 0.00 0.00 0.00 0.00 0.00 0.00 0.00 0.00 0.00 0.00 0.00 0.00 0.00 0.00 0.00 0.00 0.00 0.00 0.00 0.00 0.00 0.00 0.00 0.00 0.00 0.00 0.00 0.00 0.00 0.00 0.00 0.00 0.00 0.00 0.00 0.00 0.00 0.00
MSLP
1016.66 1017.38 1017.93 1018.32 1018.58 1018.74 1018.83 1018.88 1018.87 1018.77 1018.54 1018.15 1017.63 1016.98 1016.28 1015.60 1015.05 1014.67 1014.52 1014.57 1014.80 1015.13 1015.48 1015.78 1016.00 1016.11 1016.17 1016.21 1016.30 1016.52 1016.89 1017.42 1018.09 1018.84 1019.60 1020.31 1020.91 1021.36 1021.66 1021.84 1021.94 1022.00 1022.07 1022.19
1016.95 1017.57 1018.01 1018.30 1018.50 1018.66 1018.80 1018.93 1019.02 1019.01 1018.84 1018.48 1017.91 1017.17 1016.33 1015.50 1014.79 1014.29 1014.05 1014.09 1014.35 1014.75 1015.21 1015.63 1015.94 1016.12 1016.20 1016.24 1016.31 1016.48 1016.82 1017.34 1018.03 1018.82 1019.65 1020.43 1021.10 1021.62 1021.97 1022.17 1022.27 1022.33 1022.39 1022.50
1017.01 1017.50 1017.82 1018.03 1018.20 1018.38 1018.59 1018.83 1019.04 1019.14 1019.05 1018.71 1018.12 1017.30 1016.33 1015.36 1014.50 1013.88 1013.56 1013.57 1013.87 1014.35 1014.92 1015.46 1015.88 1016.15 1016.29 1016.35 1016.40 1016.55 1016.86 1017.36 1018.04 1018.85 1019.71 1020.55 1021.27 1021.84 1022.23 1022.46 1022.57 1022.63 1022.69 1022.79
1016.86 1017.21 1017.43 1017.58 1017.74 1017.96 1018.27 1018.63 1018.98 1019.20 1019.19 1018.90 1018.28 1017.39 1016.31 1015.20 1014.21 1013.48 1013.09 1013.07 1013.39 1013.95 1014.63 1015.29 1015.83 1016.20 1016.41 1016.51 1016.57 1016.70 1016.98 1017.45 1018.11 1018.90 1019.77 1020.62 1021.37 1021.97 1022.38 1022.64 1022.78 1022.86 1022.93 1023.03
1016.54 1016.78 1016.91 1017.03 1017.22 1017.52 1017.94 1018.44 1018.91 1019.25 1019.32 1019.05 1018.42 1017.46 1016.29 1015.06 1013.95 1013.12 1012.67 1012.63 1012.97 1013.60 1014.37 1015.14 1015.80 1016.27 1016.56 1016.71 1016.79 1016.91 1017.16 1017.58 1018.19 1018.94 1019.78 1020.61 1021.36 1021.97 1022.41 1022.70 1022.87 1022.97 1023.06 1023.18
1016.12 1016.27 1016.36 1016.49 1016.73 1017.13 1017.67 1018.30 1018.90 1019.33 1019.47 1019.22 1018.56 1017.55 1016.29 1014.96 1013.76 1012.85 1012.34 1012.28 1012.63 1013.30 1014.15 1015.01 1015.77 1016.34 1016.71 1016.91 1017.02 1017.13 1017.34 1017.71 1018.26 1018.95 1019.74 1020.53 1021.26 1021.87 1022.32 1022.63 1022.84 1022.98 1023.10 1023.25
1015.63 1015.74 1015.84 1016.02 1016.35 1016.86 1017.52 1018.27 1018.96 1019.46 1019.63 1019.38 1018.70 1017.63 1016.31 1014.91 1013.64 1012.67 1012.11 1012.03 1012.38 1013.08 1013.97 1014.90 1015.73 1016.38 1016.82 1017.06 1017.20 1017.31 1017.50 1017.82 1018.31 1018.93 1019.65 1020.39 1021.09 1021.68 1022.15 1022.49 1022.73 1022.91 1023.07 1023.25
1015.09 1015.21 1015.36 1015.63 1016.07 1016.69 1017.47 1018.30 1019.06 1019.59 1019.77 1019.50 1018.79 1017.68 1016.32 1014.88 1013.57 1012.56 1011.98 1011.87 1012.21 1012.91 1013.82 1014.78 1015.65 1016.35 1016.83 1017.12 1017.29 1017.41 1017.58 1017.87 1018.31 1018.88 1019.54 1020.24 1020.90 1021.48 1021.95 1022.31 1022.58 1022.80 1023.00 1023.21
1014.49 1014.67 1014.92 1015.30 1015.86 1016.59 1017.45 1018.34 1019.12 1019.65 1019.81 1019.52 1018.77 1017.65 1016.27 1014.82 1013.51 1012.49 1011.89 1011.77 1012.08 1012.75 1013.64 1014.59 1015.47 1016.19 1016.71 1017.04 1017.24 1017.39 1017.57 1017.86 1018.27 1018.81 1019.43 1020.09 1020.72 1021.29 1021.76 1022.14 1022.43 1022.68 1022.91 1023.14
1013.82 1014.10 1014.47 1014.97 1015.64 1016.46 1017.38 1018.29 1019.05 1019.55 1019.66 1019.33 1018.57 1017.44 1016.08 1014.67 1013.39 1012.40 1011.81 1011.67 1011.95 1012.57 1013.41 1014.32 1015.17 1015.88 1016.42 1016.78 1017.03 1017.22 1017.45 1017.76 1018.18 1018.71 1019.32 1019.96 1020.59 1021.14 1021.61 1021.99 1022.30 1022.56 1022.80 1023.03
1013.08 1013.48 1013.97 1014.59 1015.35 1016.23 1017.16 1018.04 1018.75 1019.17 1019.23 1018.86 1018.09 1017.00 1015.70 1014.36 1013.15 1012.22 1011.66 1011.51 1011.75 1012.31 1013.07 1013.91 1014.71 1015.40 1015.93 1016.33 1016.63 1016.90 1017.19 1017.56 1018.03 1018.59 1019.22 1019.86 1020.48 1021.03 1021.49 1021.87 1022.17 1022.42 1022.64 1022.86
1012.31 1012.83 1013.43 1014.14 1014.96 1015.84 1016.74 1017.54 1018.16 1018.49 1018.48 1018.08 1017.33 1016.29 1015.09 1013.86 1012.76 1011.92 1011.41 1011.26 1011.47 1011.95 1012.62 1013.37 1014.10 1014.75 1015.28 1015.71 1016.08 1016.43 1016.81 1017.27 1017.81 1018.42 1019.08 1019.75 1020.37 1020.91 1021.36 1021.72 1022.00 1022.23 1022.42 1022.60
1011.59 1012.20 1012.88 1013.64 1014.46 1015.31 1016.11 1016.81 1017.30 1017.52 1017.43 1017.01 1016.28 1015.33 1014.25 1013.17 1012.22 1011.48 1011.04 1010.91 1011.09 1011.50 1012.07 1012.73 1013.38 1013.98 1014.51 1014.97 1015.40 1015.84 1016.33 1016.88 1017.51 1018.19 1018.90 1019.59 1020.22 1020.76 1021.19 1021.53 1021.78 1021.97 1022.12 1022.26
1011.00 1011.67 1012.40 1013.15 1013.92 1014.67 1015.35 1015.88 1016.23 1016.32 1016.15 1015.71 1015.03 1014.18 1013.25 1012.34 1011.54 1010.94 1010.58 1010.49 1010.63 1010.98 1011.47 1012.03 1012.60 1013.15 1013.67 1014.17 1014.67 1015.19 1015.78 1016.43 1017.14 1017.89 1018.64 1019.35 1019.99 1020.52 1020.94 1021.26 1021.48 1021.63 1021.75 1021.84
1010.62 1011.32 1012.03 1012.74 1013.40 1014.01 1014.51 1014.86 1015.03 1015.00 1014.75 1014.29 1013.67 1012.94 1012.16 1011.43 1010.80 1010.34 1010.08 1010.02 1010.16 1010.46 1010.87 1011.34 1011.84 1012.35 1012.87 1013.39 1013.94 1014.54 1015.20 1015.93 1016.71 1017.51 1018.30 1019.03 1019.67 1020.20 1020.61 1020.91 1021.11 1021.24 1021.33 1021.39
1010.49 1011.18 1011.83 1012.43 1012.96 1013.38 1013.68 1013.84 1013.83 1013.66 1013.33 1012.87 1012.31 1011.70 1011.09 1010.53 1010.07 1009.75 1009.59 1009.59 1009.73 1009.99 1010.34 1010.75 1011.19 1011.67 1012.17 1012.71 1013.30 1013.95 1014.67 1015.44 1016.26 1017.09 1017.89 1018.63 1019.27 1019.80 1020.21 1020.51 1020.71 1020.84 1020.91 1020.96
1010.57 1011.21 1011.77 1012.24 1012.59 1012.82 1012.91 1012.87 1012.69 1012.39 1012.00 1011.55 1011.05 1010.56 1010.10 1009.71 1009.42 1009.24 1009.18 1009.24 1009.40 1009.64 1009.95 1010.31 1010.72 1011.17 1011.66 1012.20 1012.80 1013.48 1014.22 1015.02 1015.84 1016.67 1017.46 1018.19 1018.83 1019.36 1019.78 1020.10 1020.32 1020.46 1020.55 1020.60
1010.75 1011.33 1011.78 1012.10 1012.27 1012.31 1012.20 1011.97 1011.65 1011.25 1010.82 1010.38 1009.96 1009.59 1009.27 1009.05 1008.91 1008.86 1008.90 1009.02 1009.21 1009.46 1009.75 1010.09 1010.47 1010.90 1011.38 1011.91 1012.52 1013.19 1013.92 1014.69 1015.49 1016.29 1017.05 1017.76 1018.39 1018.93 1019.37 1019.71 1019.97 1020.15 1020.27 1020.33
1010.91 1011.39 1011.73 1011.90 1011.91 1011.77 1011.50 1011.13 1010.70 1010.24 1009.79 1009.39 1009.05 1008.79 1008.62 1008.55 1008.55 1008.63 1008.76 1008.95 1009.18 1009.45 1009.75 1010.08 1010.45 1010.87 1011.34 1011.87 1012.45 1013.09 1013.79 1014.51 1015.26 1016.00 1016.72 1017.39 1018.00 1018.54 1019.00 1019.39 1019.69 1019.91 1020.06 1020.14
1010.87 1011.27 1011.50 1011.54 1011.42 1011.15 1010.75 1010.29 1009.80 1009.32 1008.89 1008.55 1008.31 1008.17 1008.14 1008.19 1008.33 1008.52 1008.75 1009.01 1009.29 1009.59 1009.91 1010.26 1010.64 1011.05 1011.52 1012.03 1012.58 1013.19 1013.82 1014.48 1015.15 1015.83 1016.48 1017.11 1017.69 1018.23 1018.71 1019.12 1019.46 1019.73 1019.90 1019.99
1010.54 1010.86 1011.00 1010.95 1010.72 1010.37 1009.91 1009.41 1008.91 1008.46 1008.09 1007.84 1007.70 1007.69 1007.78 1007.97 1008.22 1008.51 1008.83 1009.16 1009.50 1009.84 1010.20 1010.57 1010.96 1011.39 1011.85 1012.34 1012.87 1013.42 1013.99 1014.58 1015.17 1015.76 1016.35 1016.92 1017.47 1017.99 1018.47 1018.90 1019.27 1019.55 1019.74 1019.82
1009.90 1010.15 1010.21 1010.09 1009.82 1009.43 1008.97 1008.49 1008.03 1007.65 1007.37 1007.22 1007.21 1007.31 1007.53 1007.83 1008.19 1008.57 1008.97 1009.37 1009.76 1010.15 1010.54 1010.94 1011.36 1011.80 1012.26 1012.74 1013.24 1013.75 1014.26 1014.77 1015.28 1015.79 1016.30 1016.81 1017.32 1017.81 1018.28 1018.70 1019.07 1019.34 1019.52 1019.57
1008.99 1009.17 1009.18 1009.03 1008.75 1008.38 1007.96 1007.54 1007.17 1006.89 1006.73 1006.71 1006.81 1007.04 1007.36 1007.76 1008.21 1008.67 1009.13 1009.58 1010.02 1010.45 1010.88 1011.32 1011.76 1012.22 1012.68 1013.15 1013.63 1014.09 1014.55 1015.00 1015.44 1015.88 1016.32 1016.77 1017.22 1017.66 1018.09 1018.49 1018.82 1019.06 1019.19 1019.19
1007.91 1008.04 1008.02 1007.87 1007.62 1007.30 1006.96 1006.65 1006.39 1006.24 1006.21 1006.30 1006.53 1006.86 1007.28 1007.76 1008.27 1008.79 1009.30 1009.79 1010.27 1010.73 1011.19 1011.65 1012.11 1012.58 1013.05 1013.52 1013.97 1014.41 1014.83 1015.22 1015.61 1015.98 1016.36 1016.74 1017.13 1017.52 1017.89 1018.23 1018.50 1018.68 1018.75 1018.68
1006.79 1006.87 1006.85 1006.72 1006.53 1006.30 1006.07 1005.88 1005.76 1005.74 1005.83 1006.05 1006.38 1006.80 1007.30 1007.83 1008.39 1008.94 1009.48 1009.99 1010.49 1010.97 1011.44 1011.92 1012.39 1012.87 1013.34 1013.80 1014.24 1014.66 1015.05 1015.40 1015.74 1016.07 1016.39 1016.71 1017.04 1017.36 1017.66 1017.92 1018.11 1018.21 1018.20 1018.06
1005.73 1005.78 1005.77 1005.70 1005.59 1005.47 1005.36 1005.31 1005.32 1005.44 1005.65 1005.98 1006.39 1006.88 1007.43 1008.00 1008.58 1009.14 1009.69 1010.21 1010.71 1011.19 1011.66 1012.13 1012.61 1013.08 1013.55 1014.00 1014.43 1014.82 1015.19 1015.52 1015.83 1016.11 1016.39 1016.65 1016.91 1017.16 1017.38 1017.56 1017.66 1017.68 1017.58 1017.36
Thickness
5651 5644 5641 5645 5646 5649 5650 5647 5648 5655 5666 5666 5666 5674 5690 5695 5692 5691 5690 5688 5687 5688 5689 5687 5684 5682 5680 5678 5675 5671 5666 5660 5654 5647 5641 5635 5630 5626 5623 5620 5616 5613 5610 5606
5634 5635 5647 5647 5644 5643 5642 5640 5641 5649 5658 5658 5659 5669 5686 5691 5692 5695 5695 5690 5688 5684 5682 5680 5677 5674 5673 5670 5668 5664 5660 5654 5649 5644 5637 5631 5625 5620 5616 5612 5608 5605 5602 5598
5629 5640 5645 5639 5637 5634 5633 5633 5638 5641 5647 5651 5651 5662 5679 5690 5692 5694 5693 5691 5687 5684 5679 5674 5670 5667 5664 5661 5659 5658 5652 5648 5643 5637 5630 5623 5617 5612 5607 5604 5600 5597 5594 5590
5624 5635 5638 5634 5632 5629 5626 5636 5636 5636 5632 5628 5638 5633 5669 5679 5682 5688 5688 5683 5680 5679 5674 5669 5664 5660 5656 5654 5651 5649 5645 5640 5635 5630 5625 5620 5613 5606 5601 5596 5592 5588 5585 5581
5621 5630 5630 5628 5633 5629 5630 5636 5631 5630 5626 5620 5626 5623 5655 5669 5675 5684 5685 5680 5675 5672 5668 5665 5660 5655 5650 5646 5643 5640 5636 5631 5627 5623 5619 5613 5606 5599 5593 5588 5584 5579 5575 5572
5622 5629 5630 5632 5636 5631 5628 5622 5615 5606 5606 5606 5620 5613 5633 5659 5671 5678 5681 5676 5670 5664 5661 5657 5652 5647 5642 5637 5634 5631 5628 5623 5619 5615 5610 5606 5599 5592 5586 5580 5575 5570 5566 5562
5613 5621 5629 5631 5625 5624 5621 5608 5594 5596 5593 5598 5613 5611 5630 5661 5668 5669 5672 5671 5664 5657 5652 5648 5643 5639 5635 5630 5627 5623 5620 5615 5610 5607 5602 5598 5592 5586 5580 5573 5567 5562 5557 5552
5598 5604 5619 5624 5623 5614 5611 5607 5592 5589 5587 5593 5605 5605 5638 5660 5663 5664 5664 5664 5657 5650 5645 5643 5639 5634 5629 5625 5620 5617 5613 5608 5603 5599 5594 5589 5584 5578 5572 5566 5560 5554 5548 5543
5601 5603 5619 5620 5623 5616 5603 5600 5604 5589 5585 5585 5596 5611 5634 5659 5660 5660 5658 5654 5649 5643 5640 5637 5632 5628 5624 5619 5615 5611 5607 5602 5597 5592 5586 5580 5575 5570 5564 5557 5551 5545 5539 5534
5607 5598 5609 5612 5612 5610 5607 5599 5586 5582 5577 5577 5590 5601 5620 5644 5651 5652 5652 5648 5643 5638 5633 5630 5626 5623 5618 5614 5609 5605 5601 5596 5590 5585 5579 5573 5567 5561 5555 5548 5542 5536 5530 5525
5607 5598 5594 5599 5600 5599 5594 5592 5590 5580 5576 5575 5578 5600 5628 5635 5642 5641 5643 5643 5638 5633 5629 5626 5622 5617 5613 5607 5602 5598 5594 5589 5583 5577 5571 5565 5558 5552 5545 5539 5533 5527 5521 5515
5602 5591 5583 5590 5599 5601 5599 5595 5587 5580 5576 5569 5571 5595 5634 5633 5634 5635 5639 5639 5635 5631 5626 5622 5617 5611 5606 5601 5596 5592 5587 5582 5576 5570 5563 5556 5549 5542 5536 5529 5523 5517 5511 5505
5599 5585 5576 5580 5584 5589 5592 5591 5591 5586 5576 5560 5565 5595 5628 5628 5632 5634 5635 5635 5630 5627 5622 5616 5611 5607 5603 5598 5592 5587 5582 5576 5569 5562 5554 5547 5540 5533 5526 5520 5514 5507 5501 5495
5603 5586 5587 5586 5590 5588 5585 5587 5584 5580 5572 5567 5574 5596 5615 5621 5624 5627 5628 5628 5626 5622 5618 5612 5607 5604 5599 5594 5589 5583 5576 5569 5562 5554 5546 5538 5531 5524 5517 5511 5504 5498 5491 5485
5597 5587 5588 5593 5595 5589 5590 5589 5582 5582 5585 5582 5590 5594 5613 5618 5617 5619 5621 5621 5620 5617 5613 5609 5605 5600 5594 5588 5582 5576 5569 5562 5554 5546 5538 5530 5523 5515 5508 5501 5494 5488 5482 5476
5590 5586 5583 5587 5588 5586 5586 5587 5584 5584 5587 5585 5588 5595 5615 5614 5612 5611 5613 5613 5613 5612 5610 5606 5601 5595 5589 5584 5577 5570 5562 5554 5546 5538 5530 5521 5513 5505 5498 5491 5485 5478 5472 5466
5581 5579 5574 5573 5581 5578 5576 5589 5587 5585 5588 5589 5589 5605 5614 5609 5608 5608 5609 5607 5607 5606 5604 5600 5595 5590 5584 5578 5572 5563 5555 5545 5537 5529 5520 5511 5504 5496 5488 5482 5475 5468 5462 5456
5580 5575 5567 5563 5567 5563 5591 5602 5599 5595 5596 5594 5599 5605 5608 5607 5606 5604 5603 5602 5601 5599 5596 5592 5586 5581 5575 5569 5561 5553 5544 5535 5527 5518 5510 5502 5493 5486 5478 5471 5464 5458 5452 5445
5580 5573 5557 5551 5557 5566 5583 5597 5595 5590 5592 5600 5599 5602 5601 5598 5597 5597 5598 5596 5594 5592 5587 5581 5575 5570 5563 5556 5549 5541 5532 5523 5515 5507 5499 5492 5484 5475 5468 5461 5454 5448 5441 5435
5564 5567 5555 5546 5556 5561 5588 5603 5599 5593 5590 5606 5600 5597 5592 5587 5585 5591 5592 5587 5583 5578 5572 5567 5561 5556 5549 5543 5536 5529 5519 5511 5504 5497 5489 5481 5473 5466 5458 5451 5444 5438 5431 5425
5555 5554 5550 5547 5555 5563 5587 5594 5592 5579 5590 5606 5598 5593 5583 5584 5586 5583 5579 5574 5569 5564 5559 5554 5548 5542 5536 5529 5523 5515 5507 5500 5494 5486 5478 5470 5463 5455 5448 5441 5434 5427 5420 5414
5561 5549 5543 5541 5549 5564 5590 5583 5584 5591 5597 5597 5593 5588 5581 5579 5576 5571 5567 5561 5556 5550 5545 5540 5534 5527 5521 5516 5511 5503 5495 5488 5481 5474 5466 5459 5451 5444 5438 5430 5423 5415 5407 5400
5561 5571 5567 5567 5575 5587 5584 5588 5592 5589 5589 5589 5585 5581 5576 5571 5567 5562 5556 5549 5544 5538 5532 5527 5521 5514 5507 5503 5499 5491 5483 5476 5469 5462 5454 5447 5440 5433 5426 5418 5411 5403 5395 5386
5552 5558 5556 5559 5569 5578 5579 5580 5583 5582 5584 5583 5579 5574 5569 5566 5560 5552 5544 5537 5531 5526 5520 5514 5509 5502 5495 5490 5485 5479 5472 5465 5458 5450 5443 5436 5429 5422 5415 5407 5399 5390 5382 5373
5561 5548 5552 5557 5568 5573 5577 5575 5577 5575 5574 5572 5570 5565 5561 5557 5551 5543 5534 5527 5520 5514 5508 5503 5498 5492 5485 5478 5472 5466 5460 5454 5446 5439 5432 5425 5418 5410 5403 5396 5388 5380 5372 5360
5546 5552 5558 5566 5573 5572 5577 5579 5572 5568 5566 5563 5559 5554 5551 5546 5540 5533 5524 5516 5510 5503 5497 5491 5486 5480 5473 5467 5461 5455 5449 5442 5435 5428 5421 5413 5406 5399 5391 5384 5379 5372 5362 5355